Wind_Speed
53 52 51 50 47 46 45 44 42 41 39 38 38 36 36 37 37 38 39 40 40 40 41 43 44 45 47 48 50 52 53 55 57 59 61 63 64 64
54 52 51 50 48 46 45 42 41 39 38 38 37 37 37 38 38 38 39 40 40 41 42 43 44 45 47 48 50 52 54 56 58 60 62 63 63 62
54 51 50 50 48 46 45 43 41 39 37 37 37 37 37 38 38 37 38 39 40 41 42 43 44 45 47 49 51 52 54 57 58 59 61 62 61 60
51 51 50 49 48 46 44 43 41 39 38 37 37 37 37 38 37 37 37 38 39 41 42 43 44 45 47 49 51 53 55 57 58 59 60 60 59 57
48 48 49 48 47 47 46 43 40 39 38 37 36 36 37 37 36 36 37 38 39 40 41 42 43 45 47 49 51 53 55 56 57 58 59 58 57 55
46 46 46 45 45 46 44 43 41 38 37 36 35 35 35 35 35 35 36 37 38 39 40 42 43 44 47 49 51 53 54 55 56 57 57 56 55 53
44 43 43 42 43 43 42 40 39 37 36 36 35 35 34 33 34 34 35 36 37 38 40 41 43 45 47 49 50 51 52 54 55 55 55 54 52 51
43 43 42 40 40 41 40 38 38 37 36 36 35 34 32 32 32 33 34 36 37 37 39 41 42 45 47 48 49 50 52 54 54 54 53 52 51 49
42 43 41 40 38 37 37 36 37 37 37 36 34 33 32 32 32 33 34 35 36 37 39 41 43 44 45 46 48 50 52 53 53 52 51 50 49 48
40 39 39 39 37 35 35 35 35 36 35 34 33 32 32 33 33 33 33 35 36 37 38 40 42 43 44 45 47 50 51 52 52 51 49 48 47 46
39 38 37 37 35 34 35 34 34 33 33 32 31 31 32 33 33 32 33 34 36 37 39 40 40 41 43 45 47 49 50 50 50 48 47 46 45 44
39 37 35 34 33 34 34 33 33 31 30 29 30 31 32 33 32 32 33 35 36 37 37 38 38 40 42 45 47 47 48 49 48 46 45 44 43 43
37 36 34 33 33 33 34 33 32 31 30 29 29 29 30 31 31 32 33 35 36 36 36 36 37 40 42 44 45 46 47 46 45 45 43 43 42 41
35 34 34 34 33 33 32 31 31 30 29 29 29 29 30 30 30 32 34 35 35 35 34 35 37 39 41 42 43 44 45 44 44 43 41 41 40 39
34 34 35 35 34 33 32 30 29 29 28 27 28 28 28 29 30 31 32 33 33 32 32 34 37 38 40 41 42 42 43 42 42 41 40 39 38 37
34 35 35 35 33 32 31 29 29 27 26 26 27 27 27 28 29 30 30 30 29 29 31 33 35 37 38 39 40 41 40 40 39 39 38 38 37 35
33 33 34 33 32 31 29 28 27 27 27 26 26 26 27 27 27 28 27 27 27 29 31 32 34 35 37 38 39 39 38 37 37 37 37 36 34 33
32 32 32 31 31 30 28 26 26 25 25 25 25 26 26 25 25 25 25 25 26 28 30 31 32 34 36 37 37 36 36 36 36 36 36 34 32 31
32 31 30 30 29 29 27 25 24 24 24 23 23 23 24 24 24 24 24 24 25 27 28 29 31 32 34 34 34 34 35 35 35 34 33 32 30 29
31 30 29 28 27 26 25 24 23 22 22 21 21 22 22 22 22 22 23 24 25 25 26 28 29 30 31 32 32 33 33 33 33 32 31 29 29 27
30 29 28 27 26 25 23 23 22 21 21 20 21 21 20 19 20 20 21 22 23 24 25 26 28 29 29 30 31 31 31 32 31 31 29 27 27 25
30 28 27 27 25 24 22 22 21 20 20 20 19 19 18 18 18 19 20 21 22 23 24 25 26 27 28 28 29 30 30 30 29 29 27 26 25 23
28 27 26 25 25 23 21 20 20 19 18 18 17 17 17 17 18 18 19 20 21 22 23 24 25 26 27 27 28 28 28 28 27 26 26 24 23 22
Wind_Direction
232 234 236 237 240 242 244 247 250 254 257 260 263 267 272 276 280 284 288 291 293 297 300 302 303 305 308 310 311 313 314 315 316 317 318 318 319 319
232 235 236 236 238 241 243 245 249 253 256 259 263 268 272 275 279 283 287 290 293 297 299 301 304 306 308 310 312 313 314 316 317 317 318 319 320 321
232 234 236 236 237 240 241 244 247 252 256 257 261 265 271 276 279 283 286 289 293 297 299 302 304 307 309 311 312 314 315 316 317 318 319 321 321 322
232 233 235 236 237 238 241 243 246 250 254 256 260 264 269 275 278 282 286 290 293 297 300 303 305 308 310 311 313 315 316 317 318 320 321 321 322 322
230 232 234 236 237 239 240 242 245 248 252 256 259 263 269 274 278 282 287 290 294 297 301 304 306 308 310 312 314 316 317 319 320 321 322 323 323 323
228 230 233 235 236 238 239 241 243 246 250 255 260 265 269 274 278 281 286 291 295 298 302 305 307 309 311 313 316 317 319 321 322 323 323 324 324 324
226 228 231 233 235 237 237 239 242 246 251 255 261 266 269 274 277 281 286 292 295 300 304 306 307 310 313 315 317 319 321 322 323 324 325 326 326 326
226 228 228 230 234 235 236 238 242 246 252 256 260 264 270 274 277 282 287 291 296 301 304 306 309 311 314 316 318 320 322 324 324 325 326 327 328 328
226 226 228 230 231 234 236 239 242 246 251 256 261 264 269 274 278 284 288 293 297 301 304 307 310 313 315 317 319 321 323 325 325 326 327 328 329 329
225 225 226 227 229 233 236 238 242 245 251 256 261 265 269 272 279 284 289 294 297 302 305 308 311 313 316 318 321 323 325 326 326 327 328 329 330 331
223 224 224 224 227 231 234 237 240 244 249 254 261 265 270 274 280 285 291 296 299 302 306 308 311 314 317 320 322 325 326 326 327 329 329 330 331 332
221 221 222 224 228 231 233 236 238 243 248 252 259 265 270 273 279 286 292 297 299 302 306 308 311 314 318 321 323 326 327 328 329 330 330 332 333 334
220 220 222 226 229 232 234 236 239 242 247 251 258 265 269 274 279 286 293 298 300 303 306 308 312 316 319 322 324 326 328 329 330 331 332 333 335 336
217 219 223 227 230 233 234 235 238 241 245 251 259 265 270 275 280 286 293 297 300 303 306 309 313 317 321 323 325 327 329 330 331 333 335 336 337 338
216 218 222 226 230 233 234 236 238 240 245 253 260 266 271 276 281 287 294 298 301 303 308 312 315 319 322 324 326 328 329 331 333 335 337 338 339 340
214 216 221 225 228 231 232 234 238 242 247 255 261 267 272 279 283 289 294 297 300 304 310 314 318 321 323 325 327 329 330 332 335 337 338 340 341 342
213 217 222 226 227 230 232 234 237 243 249 255 262 268 274 281 287 290 292 295 300 306 311 315 319 322 324 326 328 329 332 334 337 338 339 341 342 343
214 217 219 221 225 228 231 233 236 243 250 257 262 267 276 282 285 287 292 296 301 307 312 316 319 323 325 327 329 331 333 336 338 339 341 342 343 345
214 216 216 220 224 228 230 233 237 244 251 258 265 271 277 280 282 286 291 296 302 307 312 316 320 324 326 328 331 334 335 337 338 340 341 342 344 346
214 215 215 218 221 226 229 232 237 243 251 260 267 272 276 278 280 285 291 297 303 308 313 318 322 325 327 330 333 336 337 338 340 341 342 343 345 346
211 211 214 217 219 224 228 232 237 242 253 263 267 271 275 276 280 285 292 299 304 308 314 319 323 326 329 332 335 337 338 340 342 344 345 346 347 349
209 209 212 215 218 221 226 231 236 243 255 262 265 268 271 275 281 287 295 300 305 310 315 319 323 327 331 333 336 338 340 342 345 347 349 349 350 354
208 209 211 214 217 222 227 232 237 246 253 258 260 264 270 277 284 290 296 301 306 311 316 319 323 328 332 334 337 340 342 344 347 350 352 354 356 0
Height
5651 5658 5665 5671 5677 5683 5688 5693 5697 5700 5703 5704 5706 5706 5706 5706 5705 5704 5702 5699 5696 5693 5689 5685 5680 5674 5669 5662 5655 5648 5640 5632 5623 5614 5604 5594 5583 5572
5640 5647 5653 5660 5667 5673 5678 5683 5687 5691 5693 5696 5697 5698 5698 5698 5697 5695 5694 5691 5688 5685 5681 5676 5671 5666 5660 5653 5646 5638 5630 5621 5612 5603 5593 5582 5571 5560
5629 5637 5643 5650 5656 5662 5668 5673 5677 5681 5684 5687 5688 5689 5689 5689 5688 5687 5685 5683 5680 5676 5672 5667 5662 5657 5651 5644 5636 5628 5620 5611 5601 5592 5581 5571 5560 5550
5619 5627 5633 5640 5647 5653 5658 5664 5668 5672 5675 5678 5679 5680 5681 5681 5680 5679 5677 5674 5671 5668 5663 5659 5654 5648 5641 5635 5627 5619 5610 5600 5591 5581 5571 5561 5550 5539
5610 5617 5624 5630 5637 5643 5649 5654 5659 5663 5666 5669 5671 5672 5672 5672 5671 5670 5668 5666 5663 5659 5655 5650 5645 5639 5632 5625 5617 5609 5600 5591 5581 5571 5560 5549 5539 5529
5601 5608 5614 5621 5627 5633 5639 5645 5649 5654 5657 5660 5662 5663 5664 5663 5663 5662 5660 5657 5654 5650 5646 5641 5636 5630 5624 5617 5609 5600 5590 5580 5571 5560 5550 5540 5529 5519
5591 5599 5606 5612 5617 5624 5630 5636 5641 5645 5649 5652 5653 5655 5655 5655 5655 5653 5651 5649 5645 5641 5637 5632 5627 5621 5614 5607 5599 5590 5581 5571 5561 5551 5540 5530 5520 5510
5583 5590 5597 5603 5609 5615 5621 5627 5632 5637 5641 5643 5645 5646 5647 5647 5646 5645 5643 5641 5638 5634 5628 5623 5618 5612 5605 5598 5590 5581 5572 5562 5552 5542 5532 5522 5512 5502
5574 5582 5589 5596 5602 5608 5613 5619 5624 5628 5632 5635 5637 5638 5639 5640 5639 5637 5635 5632 5629 5625 5620 5615 5610 5603 5597 5589 5581 5573 5563 5553 5544 5534 5523 5514 5504 5495
5567 5574 5582 5588 5595 5600 5606 5611 5616 5621 5624 5627 5629 5631 5631 5631 5630 5629 5626 5624 5620 5616 5612 5607 5601 5595 5588 5581 5573 5564 5555 5545 5535 5525 5516 5507 5498 5488
5560 5567 5574 5581 5587 5593 5598 5604 5608 5613 5616 5619 5621 5622 5623 5623 5622 5621 5619 5616 5613 5609 5604 5599 5594 5588 5581 5573 5565 5556 5547 5537 5528 5518 5509 5500 5491 5482
5553 5560 5567 5574 5580 5585 5591 5596 5601 5605 5608 5610 5613 5614 5615 5615 5614 5613 5612 5609 5605 5601 5596 5592 5586 5580 5574 5566 5558 5549 5539 5530 5521 5512 5503 5494 5485 5477
5546 5554 5560 5567 5573 5579 5584 5589 5594 5598 5600 5603 5605 5606 5607 5608 5607 5606 5604 5601 5597 5593 5589 5584 5579 5573 5566 5559 5550 5542 5533 5524 5515 5506 5497 5489 5480 5472
5540 5547 5554 5560 5566 5571 5577 5582 5586 5590 5593 5595 5598 5599 5600 5600 5599 5598 5596 5593 5589 5586 5582 5578 5572 5566 5559 5551 5544 5535 5527 5518 5510 5501 5492 5484 5475 5467
5533 5540 5547 5553 5559 5564 5570 5575 5579 5582 5586 5588 5590 5592 5592 5592 5591 5590 5588 5585 5582 5579 5575 5571 5565 5559 5552 5545 5538 5530 5521 5513 5505 5496 5488 5480 5472 5464
5526 5533 5540 5546 5552 5558 5563 5567 5572 5575 5579 5581 5583 5584 5584 5584 5583 5582 5580 5578 5575 5572 5568 5564 5558 5552 5546 5539 5531 5523 5516 5508 5500 5492 5484 5476 5468 5461
5521 5527 5533 5540 5546 5551 5556 5561 5565 5569 5572 5574 5575 5577 5577 5577 5576 5575 5573 5571 5569 5566 5562 5557 5552 5546 5539 5533 5525 5518 5510 5503 5496 5488 5480 5473 5466 5459
5515 5522 5528 5534 5540 5545 5550 5555 5559 5562 5565 5567 5568 5570 5570 5570 5569 5568 5567 5565 5563 5559 5555 5551 5546 5540 5534 5527 5520 5513 5506 5499 5491 5484 5477 5470 5463 5457
5509 5516 5523 5529 5534 5539 5544 5549 5553 5556 5558 5560 5561 5562 5563 5563 5563 5562 5560 5559 5556 5553 5549 5545 5540 5534 5528 5522 5515 5508 5502 5495 5488 5481 5474 5468 5461 5455
5505 5511 5518 5523 5529 5534 5539 5543 5547 5550 5552 5554 5555 5556 5556 5556 5556 5555 5554 5552 5550 5547 5543 5539 5534 5529 5524 5518 5511 5505 5498 5491 5484 5478 5471 5465 5459 5453
5500 5506 5513 5518 5524 5529 5533 5537 5541 5544 5546 5547 5549 5550 5550 5550 5550 5549 5548 5546 5544 5541 5538 5534 5529 5524 5519 5513 5507 5501 5495 5488 5482 5475 5469 5463 5457 5452
5495 5502 5508 5513 5518 5523 5528 5531 5535 5538 5540 5541 5543 5544 5545 5545 5545 5544 5543 5541 5538 5536 5532 5528 5524 5520 5515 5509 5503 5497 5491 5485 5479 5473 5467 5461 5456 5451
5491 5497 5503 5508 5513 5518 5522 5526 5529 5532 5534 5536 5537 5539 5540 5540 5539 5539 5537 5535 5533 5530 5527 5523 5520 5515 5511 5505 5500 5494 5488 5482 5477 5471 5466 5460 5455 5451